Weather History for Rayong, Thailand

Change the Weather History Date:

Thursday, August 15, 2013

  Actual Average Record
Temperature  
Mean Temperature 81 °F -  
Max Temperature 89 °F 88 °F 93 °F (1998)
Min Temperature 73 °F 79 °F 73 °F (2013)
Cooling Degree Days 16    
Growing Degree Days 31 (Base 50)    
Moisture  
Dew Point 74 °F    
Average Humidity 79    
Maximum Humidity 94    
Minimum Humidity 62    
Precipitation  
Precipitation 0.00 in - - ()
Sea Level Pressure  
Sea Level Pressure 29.78 in    
Wind  
Wind Speed 5 mph ()    
Max Wind Speed 12 mph    
Max Gust Speed -    
Visibility 5.0 miles    
Events Rain , Thunderstorm    
Averages and records for this station are not official NWS values.
T = Trace of Precipitation, MM = Missing Value Source: Averaged Metar Reports

Daily Weather History Graph

Daily Weather History Graph

Search for Another Location

Airport:

Trip Planner

Search our weather history database for the weather conditions in past years. The results will help you decide how hot, cold, wet, or windy it might be!

Date:

Astronomy

Aug. 15, 2013 Rise Set
Actual Time 6:04 AM ICT 6:36 PM ICT
Civil Twilight 5:42 AM ICT 6:58 PM ICT
Nautical Twilight 5:16 AM ICT 7:24 PM ICT
Astronomical Twilight 4:50 AM ICT 7:50 PM ICT
Moon 1:04 PM ICT (8/15) No Moon Set
Length of Visible Light 13h 16m
Length of Day
12h 32m
First Quarter, 59% of the Moon is Illuminated
Aug 15
First Quarter
Aug 21
Full
Aug 28
Last Quarter
Sep 5
New
Sep 13
First Quarter

Hourly Weather History & Observations

Time (ICT) Temp. Heat Index Dew Point Humidity Pressure Visibility Wind Dir Wind Speed Gust Speed Precip Events Conditions
12:00 AM 78.8 °F - 75.2 °F 89% 29.77 in 2.5 mi Calm Calm - N/A Rain , Thunderstorm Light Thunderstorms and Rain
12:30 AM 78.8 °F - 75.2 °F 89% 29.77 in 2.5 mi Calm Calm - N/A Rain Light Rain
1:00 AM 78.8 °F - 77.0 °F 94% 29.74 in 3.1 mi WSW 6.9 mph - N/A   Mostly Cloudy
1:30 AM 78.8 °F - 77.0 °F 94% 29.74 in 3.1 mi SW 4.6 mph - N/A   Mostly Cloudy
2:00 AM 78.8 °F - 77.0 °F 94% 29.74 in 3.1 mi SW 3.5 mph - N/A   Mostly Cloudy
3:00 AM 78.8 °F - 73.4 °F 83% 29.74 in 3.7 mi SW 4.6 mph - N/A   Mostly Cloudy
3:30 AM 78.8 °F - 73.4 °F 83% 29.71 in 3.7 mi SW 5.8 mph - N/A   Mostly Cloudy
4:00 AM 78.8 °F - 73.4 °F 83% 29.74 in 3.7 mi SW 4.6 mph - N/A   Mostly Cloudy
4:30 AM 78.8 °F - 73.4 °F 83% 29.71 in 3.7 mi SW 3.5 mph - N/A   Mostly Cloudy
6:00 AM 78.8 °F - 73.4 °F 83% 29.74 in 5.0 mi SW 4.6 mph - N/A   Mostly Cloudy
6:30 AM 80.6 °F 85.4 °F 73.4 °F 79% 29.77 in 5.6 mi SW 4.6 mph - N/A   Mostly Cloudy
7:00 AM 80.6 °F 85.4 °F 73.4 °F 79% 29.77 in 6.2 mi SW 4.6 mph - N/A   Mostly Cloudy
7:30 AM 82.4 °F 89.5 °F 75.2 °F 79% 29.77 in 6.2 mi SW 9.2 mph - N/A   Mostly Cloudy
8:00 AM 82.4 °F 89.5 °F 75.2 °F 79% 29.80 in 6.2 mi SSW 9.2 mph - N/A   Mostly Cloudy
8:30 AM 82.4 °F 89.5 °F 75.2 °F 79% 29.80 in 6.2 mi SW 6.9 mph - N/A   Mostly Cloudy
9:00 AM 84.2 °F 92.3 °F 75.2 °F 74% 29.80 in 6.2 mi SW 6.9 mph - N/A   Mostly Cloudy
9:30 AM 84.2 °F 92.3 °F 75.2 °F 74% 29.83 in 6.2 mi SSW 9.2 mph - N/A   Mostly Cloudy
10:00 AM 87.8 °F 97.6 °F 75.2 °F 66% 29.83 in 6.2 mi WSW 6.9 mph - N/A   Mostly Cloudy
10:30 AM 87.8 °F 97.6 °F 75.2 °F 66% 29.83 in 6.2 mi WSW 9.2 mph - N/A   Mostly Cloudy
11:00 AM 87.8 °F 97.6 °F 75.2 °F 66% 29.83 in 6.2 mi WSW 9.2 mph - N/A   Mostly Cloudy
11:30 AM 89.6 °F 102.2 °F 77.0 °F 66% 29.83 in 6.2 mi WSW 9.2 mph - N/A   Mostly Cloudy
12:00 PM 87.8 °F 97.6 °F 75.2 °F 66% 29.83 in 6.2 mi SW 11.5 mph - N/A   Mostly Cloudy
12:30 PM 89.6 °F 99.8 °F 75.2 °F 62% 29.80 in 6.2 mi WSW 9.2 mph - N/A   Mostly Cloudy
1:00 PM 87.8 °F 97.6 °F 75.2 °F 66% 29.80 in 6.2 mi WSW 11.5 mph - N/A   Mostly Cloudy
1:30 PM 87.8 °F 97.6 °F 75.2 °F 66% 29.77 in 6.2 mi WSW 11.5 mph - N/A   Mostly Cloudy
2:00 PM 87.8 °F 97.6 °F 75.2 °F 66% 29.77 in 6.2 mi WSW 9.2 mph - N/A   Mostly Cloudy
2:30 PM 87.8 °F 97.6 °F 75.2 °F 66% 29.77 in 6.2 mi West 11.5 mph - N/A   Mostly Cloudy
3:00 PM 86.0 °F 95.1 °F 75.2 °F 70% 29.77 in 6.2 mi West 9.2 mph - N/A   Mostly Cloudy
3:30 PM 84.2 °F 92.3 °F 75.2 °F 74% 29.77 in 6.2 mi WNW 9.2 mph - N/A   Mostly Cloudy
4:00 PM 86.0 °F 95.1 °F 75.2 °F 70% 29.77 in 6.2 mi West 6.9 mph - N/A   Mostly Cloudy
4:30 PM 75.2 °F - 73.4 °F 94% 29.80 in 1.2 mi West 11.5 mph - N/A Rain , Thunderstorm Thunderstorms and Rain
5:00 PM 73.4 °F - 69.8 °F 88% 29.80 in 1.9 mi NW 9.2 mph - N/A Rain Light Rain
5:30 PM 77.0 °F - 73.4 °F 89% 29.77 in 3.1 mi North 4.6 mph - N/A Rain Light Rain
6:00 PM 77.0 °F - 73.4 °F 89% 29.77 in 3.7 mi ENE 2.3 mph - N/A Rain Light Rain
6:30 PM 77.0 °F - 73.4 °F 89% 29.77 in 5.0 mi WSW 3.5 mph - N/A   Mostly Cloudy
7:00 PM 78.8 °F - 73.4 °F 83% 29.77 in 5.6 mi Calm Calm - N/A   Mostly Cloudy
7:30 PM 78.8 °F - 73.4 °F 83% 29.77 in 5.6 mi Calm Calm - N/A   Mostly Cloudy
8:00 PM 78.8 °F - 73.4 °F 83% 29.77 in 5.6 mi SW 3.5 mph - N/A   Mostly Cloudy
8:30 PM 78.8 °F - 73.4 °F 83% 29.80 in 5.6 mi West 4.6 mph - N/A   Mostly Cloudy
9:00 PM 78.8 °F - 73.4 °F 83% 29.80 in 5.6 mi West 4.6 mph - N/A   Mostly Cloudy
9:30 PM 78.8 °F - 73.4 °F 83% 29.80 in 5.6 mi West 3.5 mph - N/A   Mostly Cloudy
10:00 PM 78.8 °F - 71.6 °F 78% 29.83 in 5.6 mi NE 2.3 mph - N/A   Mostly Cloudy
10:30 PM 78.8 °F - 73.4 °F 83% 29.83 in 5.0 mi WNW 3.5 mph - N/A   Mostly Cloudy
11:00 PM 78.8 °F - 73.4 °F 83% 29.83 in 5.0 mi West 4.6 mph - N/A   Mostly Cloudy
11:30 PM 78.8 °F - 73.4 °F 83% 29.83 in 5.0 mi West 4.6 mph - N/A   Mostly Cloudy